Weather in Bolshoy Sinkovets

Russia / Oryol Oblast     52°40′54″N   37°13′27″E
temp.,
°C
wind,
m/s
gust,
m/s
humid.,
%
clouds,
%
prec.,
mm/h
press.,
hPa
HPBL,
m
29 january, sat
sat2900:00−3s4897100 0.9 1005327
03:00−4s379889 1.3 1005186
06:00−6s229897 0.1 100536
09:00−2ssw2497100 0.1 1005139
12:00−1sw2495100 0.1 1006298
15:00−1wsw239498 0.1 1006324
18:00−4wsw2498100 0.1 100774
21:00−7wsw229893 0.3 100829
30 january, sun
sun3000:00−3wsw3797100 0.1 1007197
03:00−6wsw4995100 0.3 1007249
06:00−11sw3898100 0.0 1005130
09:00−9s61496100 0.1 1002340
12:00−6s71591100 0.0 1000597
15:00−4s81595100 0.9 997847
18:00−4s71494100 0.8 996691
21:00−4s61395100 1.1 995493
31 january, mon
mon3100:00−3s51196100 0.5 995429
03:00−3s61296100 0.8 995523
06:00−3sse6139499 0.1 993463
09:00−2sse81595100 0.5 993792
12:00−1s81496100 0.8 992845
15:00−1s71296100 1.6 991895
18:00−2ssw71397100 0.8 991739
21:00−3sw61295100 1.2 993663
1 february, tue
tue100:00−4sw7149399 0.1 995537
03:00−5sw7139299 0.3 997528
06:00−6sw7139399 0.2 1000499
09:00−6sw6129397 0.3 1001436
12:00−5wsw71293100 0.1 1003758
15:00−5wsw71288100 0.2 1004885
18:00−6sw61292100 0.1 1006463
21:00−7sw5119395 0.1 1007287
2 february, wed
wed200:00−9ssw3897100 0.1 1007178
03:00−9s3798100 0.1 1007129
06:00−13s2299100 0.0 100716
09:00−12sse2299100 0.0 100624
12:00−6ese1195100 0.2 1005115
15:00−4nne0093100 0.7 1004146
18:00−12wsw1110062 0.0 100610
21:00−15wsw22100100 0.0 10089